SRMSAT (37841 NORAD) Tracking and Keplerian Element Data

This shows tracking and keplerian element data for the satellite.

Feedback or suggestion? Click here.




ElementValue
Catalog37841
NameSRMSAT
Epoch Orbit68728
Epoch Day34.538809
Epoch Year2025
RAAN197.2369
Inclination19.9702
Eccentricity0.0011781
Argument of Perigee118.2916
Mean Anonmoly291.9183
Mean Motion14.11353039
Decay Rate6.88E-06
L11 37841U 11058D 25034.53880900 .00000688 00000+0 23072-3 0 9993
L22 37841 19.9702 197.2369 0011781 118.2916 291.9183 14.11353039687280



Live tracking and technical data element details for SRMSAT (NORAD 37841). SRMSAT can be tracked NOW for your location showing map with azimuth and elevation plus other details from your city location.







IsCatalogInMostPopularTable: catalog: 37841, numindb: 474
Update: records affected: 1



GetName: 37841 SRMSAT

Hit Count: updated at: Sat, 06 Dec 2025 13:07:56 GMT